"Pseudo-MPEC" for P116e30

Created 2020 Sep 19 21:07:30 UT using Find_Orb

Click here for an explanation of pseudo-MPECs

 
 Astrometry: 
     P116e30  C2020 09 15OGt#rBT-n3wGTLABMAstrometryeZGLVDy!@x+Y[redacted;e-^F51
     P116e30  C2020 09 158O8yw%vD3@/tGuTn!eclickmThere@gRK+e,KrjcG\xa9wNo=^jdF51
     P116e30  C2020 09 153x34=B]Gforu/S:;$3`A4B]3^explanationP0f'JjE7BX%`8HC`F51

Station data:
(F51) Pan-STARRS 1, Haleakala  (N20.707235 W156.255910)  US/Hawaii.
   Observers N. Primak, A. Schultz, S. Watters, J. Thiel, T. Goggia. Measurer
   PS1 Science Consortium. 1.8-m Ritchey-Chrétien + CCD.

Orbital elements:  P116e30
   Perihelion 2020 Aug 20.465925 +/- 53.3 TT = 11:10:55 (JD 2459081.965925)
Epoch 2020 Sep 15.0 TT = JDT 2459107.5   Earth MOID: 0.4996   AutoNEOCP
M   5.97014322 +/- 23               (J2000 ecliptic)
n   0.23381082 +/- 0.248            Peri.  330.03983 +/- 70
a   2.60951402 +/- 1.86             Node     7.77683 +/- 43
e   0.4377756 +/- 0.267             Incl.   28.30677 +/- 12
P   4.22                   H 22.1   G  0.15   U 11.8  SR
q 1.46713238 +/- 0.337    Q 3.75189566 +/- 46.3
From 3 observations 2020 Sept. 15 (73.2 min); mean residual 0".23
Residuals in arcseconds: 
200915 F51  .19+  .24+    200915 F51  .28-  .35-    200915 F51  .09+  .12+    

Ephemerides (geocentric):
Date (UTC) HH   RA              Dec         delta   r     elong  mag " sig PA
---- -- -- --  -------------   -----------  ------ ------ -----  --- ---- ---
2020 09 19 21  00 33 12.025   -11 51 51.90  .50201 1.4945 164.7 22.2  37d  12
2020 09 19 22  00 33 05.613   -11 50 05.51  .50201 1.4946 164.8 22.2  37d  12
2020 09 19 23  00 32 59.201   -11 48 19.09  .50201 1.4946 164.8 22.2  37d  12
2020 09 20 00  00 32 52.788   -11 46 32.63  .50201 1.4947 164.9 22.1  38d  12
2020 09 20 01  00 32 46.375   -11 44 46.14  .50202 1.4948 165.0 22.1  38d  12
2020 09 20 02  00 32 39.962   -11 42 59.62  .50202 1.4949 165.0 22.1  38d  11
2020 09 20 03  00 32 33.548   -11 41 13.06  .50202 1.4949 165.1 22.1  38d  11
2020 09 20 04  00 32 27.134   -11 39 26.46  .50203 1.4950 165.1 22.1  38d  11
2020 09 20 05  00 32 20.720   -11 37 39.84  .50203 1.4951 165.2 22.1  38d  11
2020 09 20 06  00 32 14.305   -11 35 53.18  .50204 1.4952 165.2 22.1  38d  11
2020 09 20 07  00 32 07.890   -11 34 06.48  .50204 1.4952 165.3 22.1  38d  12
2020 09 20 08  00 32 01.475   -11 32 19.76  .50205 1.4953 165.3 22.1  38d  12
2020 09 20 09  00 31 55.060   -11 30 33.00  .50206 1.4954 165.4 22.1  39d  12
2020 09 20 10  00 31 48.644   -11 28 46.21  .50207 1.4955 165.4 22.1  39d  12
2020 09 20 11  00 31 42.229   -11 26 59.38  .50207 1.4955 165.5 22.1  39d  12
2020 09 20 12  00 31 35.813   -11 25 12.53  .50208 1.4956 165.5 22.1  39d  12
2020 09 20 13  00 31 29.397   -11 23 25.64  .50209 1.4957 165.6 22.1  40d  12
2020 09 20 14  00 31 22.981   -11 21 38.72  .50210 1.4958 165.6 22.1  40d  12
2020 09 20 15  00 31 16.565   -11 19 51.77  .50211 1.4958 165.7 22.1  40d  12
2020 09 20 16  00 31 10.149   -11 18 04.79  .50212 1.4959 165.8 22.1  40d  12
2020 09 20 17  00 31 03.733   -11 16 17.78  .50213 1.4960 165.8 22.1  40d  12
2020 09 20 18  00 30 57.317   -11 14 30.74  .50214 1.4961 165.9 22.1  40d  12
2020 09 20 19  00 30 50.901   -11 12 43.67  .50216 1.4961 165.9 22.1  40d  11
2020 09 20 20  00 30 44.485   -11 10 56.57  .50217 1.4962 166.0 22.1  41d  11
2020 09 20 21  00 30 38.069   -11 09 09.44  .50218 1.4963 166.0 22.1  41d  11
2020 09 20 22  00 30 31.654   -11 07 22.28  .50220 1.4964 166.1 22.1  41d  11
2020 09 20 23  00 30 25.238   -11 05 35.09  .50221 1.4965 166.1 22.1  41d  11
2020 09 21 00  00 30 18.822   -11 03 47.88  .50223 1.4965 166.2 22.1  41d  11
2020 09 21 01  00 30 12.407   -11 02 00.63  .50224 1.4966 166.2 22.1  41d  11
2020 09 21 02  00 30 05.992   -11 00 13.36  .50226 1.4967 166.3 22.1  41d  11
2020 09 21 03  00 29 59.576   -10 58 26.06  .50227 1.4968 166.3 22.1  41d  11
2020 09 21 04  00 29 53.162   -10 56 38.73  .50229 1.4968 166.4 22.1  41d  11
2020 09 21 05  00 29 46.747   -10 54 51.37  .50231 1.4969 166.4 22.1  41d  11
2020 09 21 06  00 29 40.332   -10 53 03.99  .50232 1.4970 166.5 22.1  41d  11
2020 09 21 07  00 29 33.918   -10 51 16.58  .50234 1.4971 166.5 22.1  41d  11
2020 09 21 08  00 29 27.505   -10 49 29.14  .50236 1.4971 166.6 22.1  41d  11
2020 09 21 09  00 29 21.091   -10 47 41.68  .50238 1.4972 166.6 22.1  41d  11
2020 09 21 10  00 29 14.678   -10 45 54.19  .50240 1.4973 166.7 22.1  41d  11
2020 09 21 11  00 29 08.265   -10 44 06.67  .50242 1.4974 166.7 22.1  41d  11
2020 09 21 12  00 29 01.853   -10 42 19.13  .50244 1.4975 166.8 22.1  41d  11
2020 09 21 13  00 28 55.441   -10 40 31.57  .50246 1.4975 166.8 22.1  41d  11
2020 09 21 14  00 28 49.029   -10 38 43.98  .50249 1.4976 166.9 22.1  41d  11
2020 09 21 15  00 28 42.618   -10 36 56.36  .50251 1.4977 166.9 22.1  42d  11
2020 09 21 16  00 28 36.207   -10 35 08.72  .50253 1.4978 167.0 22.1  42d  11
2020 09 21 17  00 28 29.797   -10 33 21.06  .50255 1.4978 167.0 22.1  42d  11
2020 09 21 18  00 28 23.387   -10 31 33.37  .50258 1.4979 167.1 22.1  42d  11
2020 09 21 19  00 28 16.978   -10 29 45.66  .50260 1.4980 167.1 22.1  42d  11
2020 09 21 20  00 28 10.570   -10 27 57.93  .50263 1.4981 167.2 22.1  42d  11